EW4725 Weather Reports


time (UTC)temp
C
wind
direction
speed
KPH
gust
KPH
rain 1hr
cm
rain 24hr
cm
rain mn
cm
humidity
%
barometer
mb
20260831001917 28 260 6.4 9.7 0.00 0.00 0.00 64 1009.8
20260831001417 28 260 12.9 17.7 0.00 0.00 0.00 62 1009.9
20260831000936 28 283 9.7 11.3 0.00 0.00 0.00 62 1009.8
20260831000417 29 283 9.7 12.9 0.00 0.00 0.00 62 1009.7
20260830235917 29 260 6.4 12.9 0.00 0.00 0.00 60 1009.7
20260830235416 29 260 8.0 11.3 0.00 0.00 0.00 60 1009.7
20260830234916 30 260 9.7 12.9 0.00 0.00 0.00 59 1009.7
20260830234416 30 283 9.7 14.5 0.00 0.00 0.00 58 1009.7
20260830233917 30 305 6.4 9.7 0.00 0.00 0.00 55 1009.7
20260830233436 30 283 8.0 12.9 0.00 0.00 0.00 56 1009.7
20260830232917 30 283 6.4 11.3 0.00 0.00 0.00 56 1009.8
20260830232417 30 215 1.6 4.8 0.00 0.00 0.00 54 1009.9
20260830231917 30 283 6.4 9.7 0.00 0.00 0.00 56 1009.9
20260830231417 30 238 8.0 11.3 0.00 0.00 0.00 56 1009.9
20260830230917 30 238 6.4 11.3 0.00 0.00 0.00 56 1010.0
20260830230416 30 260 4.8 8.0 0.00 0.00 0.00 55 1010.0
20260830225916 30 148 6.4 8.0 0.00 0.00 0.00 54 1010.0
20260830225417 30 260 6.4 11.3 0.00 0.00 0.00 55 1010.0
20260830224916 30 148 4.8 6.4 0.00 0.00 0.00 56 1010.0
20260830224417 30 103 4.8 8.0 0.00 0.00 0.00 57 1010.1
20260830223916 30 148 8.0 11.3 0.00 0.00 0.00 56 1010.2
20260830223416 30 148 9.7 12.9 0.00 0.00 0.00 55 1010.2
20260830222917 31 148 8.0 11.3 0.00 0.00 0.00 54 1010.2
20260830222416 30 148 4.8 8.0 0.00 0.00 0.00 55 1010.3
20260830221916 30 148 11.3 20.9 0.00 0.00 0.00 55 1010.4
20260830221417 30 170 3.2 8.0 0.00 0.00 0.00 55 1010.4
20260830220917 31 125 1.6 4.8 0.00 0.00 0.00 55 1010.4
20260830220416 30 148 4.8 9.7 0.00 0.00 0.00 56 1010.5
20260830215937 30 170 1.6 4.8 0.00 0.00 0.00 58 1010.6
20260830215456 30 148 6.4 11.3 0.00 0.00 0.00 56 1010.7
20260830214917 30 148 3.2 6.4 0.00 0.00 0.00 57 1010.7
20260830214436 30 148 4.8 9.7 0.00 0.00 0.00 57 1010.8
20260830213916 30 148 4.8 11.3 0.00 0.00 0.00 58 1010.8
20260830213437 30 170 6.4 9.7 0.00 0.00 0.00 58 1010.9
20260830212917 30 148 4.8 6.4 0.00 0.00 0.00 58 1011.0
20260830212417 30 148 6.4 9.7 0.00 0.00 0.00 60 1011.1
20260830211916 29 238 4.8 8.0 0.00 0.00 0.00 61 1011.3
20260830211437 29 148 6.4 12.9 0.00 0.00 0.00 61 1011.2
20260830210916 30 125 11.3 14.5 0.00 0.00 0.00 57 1011.3
20260830210416 30 215 4.8 6.4 0.00 0.00 0.00 60 1011.4
20260830205916 30 148 8.0 11.3 0.00 0.00 0.00 59 1011.4
20260830205416 30 170 6.4 14.5 0.00 0.00 0.00 59 1011.5
20260830204957 30 215 9.7 14.5 0.00 0.00 0.00 57 1011.5
20260830204416 30 148 6.4 11.3 0.00 0.00 0.00 56 1011.5
20260830203916 30 170 3.2 9.7 0.00 0.00 0.00 56 1011.5
20260830203417 30 148 8.0 11.3 0.00 0.00 0.00 53 1011.5
20260830202916 30 215 8.0 9.7 0.00 0.00 0.00 54 1011.6
20260830202416 30 260 4.8 11.3 0.00 0.00 0.00 53 1011.7
20260830201916 30 148 4.8 9.7 0.00 0.00 0.00 53 1011.6
20260830201416 30 148 4.8 8.0 0.00 0.00 0.00 54 1011.5
20260830200916 30 193 4.8 9.7 0.00 0.00 0.00 55 1011.5
20260830200416 30 148 8.0 12.9 0.00 0.00 0.00 55 1011.5
20260830195917 30 215 3.2 6.4 0.00 0.00 0.00 57 1011.6
20260830195416 30 170 6.4 9.7 0.00 0.00 0.00 57 1011.6
20260830194936 30 170 8.0 19.3 0.00 0.00 0.00 56 1011.6
20260830194416 30 238 3.2 9.7 0.00 0.00 0.00 55 1011.5
20260830193917 30 193 4.8 8.0 0.00 0.00 0.00 56 1011.6
20260830193416 29 215 6.4 9.7 0.00 0.00 0.00 56 1011.7
20260830192916 29 148 3.2 9.7 0.00 0.00 0.00 59 1011.7
20260830192416 29 238 4.8 11.3 0.00 0.00 0.00 59 1011.7
20260830191916 29 148 4.8 9.7 0.00 0.00 0.00 60 1011.8
20260830191416 29 260 8.0 11.3 0.00 0.00 0.00 60 1011.9
20260830190936 29 215 4.8 9.7 0.00 0.00 0.00 61 1011.8
20260830190416 29 238 8.0 12.9 0.00 0.00 0.00 61 1011.8
20260830185916 29 260 4.8 8.0 0.00 0.00 0.00 61 1011.9
20260830185416 30 215 6.4 9.7 0.00 0.00 0.00 60 1012.0
20260830184936 30 170 4.8 9.7 0.00 0.00 0.00 59 1012.0
20260830184416 29 125 3.2 4.8 0.00 0.00 0.00 60 1011.9
20260830183916 29 148 4.8 8.0 0.00 0.00 0.00 61 1012.0
20260830183416 29 260 3.2 8.0 0.00 0.00 0.00 62 1012.0
20260830182916 29 260 1.6 3.2 0.00 0.00 0.00 62 1012.0
20260830182416 28 170 3.2 9.7 0.00 0.00 0.00 64 1012.0
20260830181916 28 148 8.0 12.9 0.00 0.00 0.00 63 1012.0
20260830181416 28 283 4.8 8.0 0.00 0.00 0.00 63 1012.0
20260830180956 28 148 3.2 8.0 0.00 0.00 0.00 65 1012.0
20260830180416 28 193 6.4 9.7 0.00 0.00 0.00 65 1011.9
20260830175916 28 148 4.8 8.0 0.00 0.00 0.00 66 1012.0
20260830175416 28 148 1.6 4.8 0.00 0.00 0.00 67 1012.0
20260830174916 28 260 3.2 4.8 0.00 0.00 0.00 66 1011.9
20260830174416 28 215 8.0 9.7 0.00 0.00 0.00 66 1012.0
20260830173936 28 148 9.7 12.9 0.00 0.00 0.00 66 1012.0
20260830173416 28 125 1.6 6.4 0.00 0.00 0.00 66 1012.0
20260830172916 28 58 1.6 3.2 0.00 0.00 0.00 67 1012.0
20260830172416 28 148 6.4 11.3 0.00 0.00 0.00 65 1011.9
20260830171916 28 0.0 1.6 0.00 0.00 0.00 65 1011.9
20260830171416 28 283 3.2 6.4 0.00 0.00 0.00 63 1011.9
20260830170956 28 170 3.2 6.4 0.00 0.00 0.00 65 1011.9
20260830170416 27 238 3.2 4.8 0.00 0.00 0.00 65 1011.9
20260830165916 27 0.0 1.6 0.00 0.00 0.00 66 1011.8
20260830165416 27 125 1.6 3.2 0.00 0.00 0.00 66 1011.9
20260830164916 27 0.0 1.6 0.00 0.00 0.00 67 1011.9
20260830164416 27 0.0 1.6 0.00 0.00 0.00 67 1012.0
20260830163916 27 148 1.6 4.8 0.00 0.00 0.00 69 1012.0
20260830163416 27 125 1.6 3.2 0.00 0.00 0.00 69 1011.9
20260830162916 26 0.0 0.0 0.00 0.00 0.00 70 1011.9
20260830162436 27 148 4.8 6.4 0.00 0.00 0.00 68 1011.9
20260830161916 27 0.0 1.6 0.00 0.00 0.00 68 1011.9
20260830161416 26 0.0 1.6 0.00 0.00 0.00 71 1011.8
20260830160916 26 0.0 3.2 0.00 0.00 0.00 72 1011.8
20260830160416 26 58 1.6 1.6 0.00 0.00 0.00 73 1011.9
20260830155916 26 80 4.8 6.4 0.00 0.00 0.00 72 1011.9
20260830155416 26 0.0 0.0 0.00 0.00 0.00 74 1011.9
20260830154916 25 148 3.2 4.8 0.00 0.00 0.00 73 1011.9
20260830154416 25 148 3.2 4.8 0.00 0.00 0.00 74 1012.0
20260830153916 25 148 1.6 3.2 0.00 0.00 0.00 74 1012.0
20260830153416 25 0.0 1.6 0.00 0.00 0.00 75 1012.0
20260830152956 25 148 1.6 3.2 0.00 0.00 0.00 76 1012.0
20260830152416 25 80 1.6 3.2 0.00 0.00 0.00 76 1012.0
20260830151916 25 148 1.6 4.8 0.00 0.00 0.00 78 1012.0
20260830151416 24 0.0 0.0 0.00 0.00 0.00 79 1012.0
20260830150956 23 125 1.6 3.2 0.00 0.00 0.00 79 1012.0
20260830150416 23 103 1.6 1.6 0.00 0.00 0.00 79 1012.1
20260830150056 23 125 3.2 6.4 0.00 0.00 0.00 80 1012.0
20260830145416 23 103 1.6 3.2 0.00 0.00 0.00 81 1011.9
20260830144916 23 148 3.2 4.8 0.00 0.00 0.00 82 1011.9
20260830144416 22 0.0 1.6 0.00 0.00 0.00 83 1012.0
20260830143935 22 103 1.6 3.2 0.00 0.00 0.00 84 1011.9
20260830143416 22 103 3.2 4.8 0.00 0.00 0.00 84 1011.9
20260830142916 22 103 1.6 3.2 0.00 0.00 0.00 85 1011.8
20260830142416 22 80 1.6 3.2 0.00 0.00 0.00 85 1011.8
20260830141915 22 80 1.6 3.2 0.00 0.00 0.00 86 1011.7
20260830141416 22 103 1.6 3.2 0.00 0.00 0.00 86 1011.7
20260830140916 21 125 3.2 4.8 0.00 0.00 0.00 86 1011.6
20260830140436 21 148 3.2 4.8 0.00 0.00 0.00 86 1011.6
20260830135915 21 0.0 3.2 0.00 0.00 0.00 86 1011.6
20260830135416 21 125 1.6 3.2 0.00 0.00 0.00 86 1011.6
20260830134915 21 125 1.6 4.8 0.00 0.00 0.00 86 1011.5
20260830134415 21 125 1.6 3.2 0.00 0.00 0.00 86 1011.6
20260830133915 21 0.0 0.0 0.00 0.00 0.00 86 1011.5
20260830133416 21 125 1.6 3.2 0.00 0.00 0.00 87 1011.3
20260830132916 21 0.0 0.0 0.00 0.00 0.00 86 1011.3
20260830132416 21 125 3.2 4.8 0.00 0.00 0.00 87 1011.2
20260830131915 21 125 1.6 3.2 0.00 0.00 0.00 87 1011.1
20260830131415 21 0.0 1.6 0.00 0.00 0.00 87 1011.2
20260830130915 21 0.0 1.6 0.00 0.00 0.00 87 1011.1
20260830130415 21 0.0 1.6 0.00 0.00 0.00 87 1011.1
20260830125935 21 0.0 3.2 0.00 0.00 0.00 87 1011.1
20260830125436 21 103 1.6 1.6 0.00 0.00 0.00 87 1011.1
20260830124915 21 0.0 0.0 0.00 0.00 0.00 87 1011.0
20260830124415 21 0.0 0.0 0.00 0.00 0.00 87 1011.0
20260830123915 21 0.0 1.6 0.00 0.00 0.00 87 1011.0
20260830123436 21 125 1.6 3.2 0.00 0.00 0.00 87 1010.9
20260830122915 21 0.0 0.0 0.00 0.00 0.00 87 1011.0
20260830122416 21 0.0 3.2 0.00 0.00 0.00 87 1011.0
20260830121915 21 0.0 0.0 0.00 0.00 0.00 87 1010.9
20260830121416 21 0.0 0.0 0.00 0.00 0.00 87 1010.8
20260830120915 21 0.0 0.0 0.00 0.00 0.00 87 1010.7
20260830120415 21 0.0 0.0 0.00 0.00 0.00 87 1010.7
20260830115915 21 0.0 0.0 0.00 0.00 0.00 87 1010.8
20260830115416 21 0.0 0.0 0.00 0.00 0.00 87 1010.8
20260830114915 21 0.0 0.0 0.00 0.00 0.00 87 1010.7
20260830114415 21 0.0 0.0 0.00 0.00 0.00 86 1010.7
20260830113915 22 0.0 0.0 0.00 0.00 0.00 86 1010.7
20260830113415 22 0.0 0.0 0.00 0.00 0.00 86 1010.7
20260830112955 22 0.0 0.0 0.00 0.00 0.00 86 1010.6
20260830112416 22 0.0 1.6 0.00 0.00 0.00 86 1010.6
20260830111915 22 0.0 1.6 0.00 0.00 0.00 86 1010.7
20260830111415 22 0.0 0.0 0.00 0.00 0.00 85 1010.6
20260830110915 22 0.0 0.0 0.00 0.00 0.00 85 1010.7
20260830110415 22 0.0 1.6 0.00 0.00 0.00 85 1010.6
20260830105915 22 103 1.6 3.2 0.00 0.00 0.00 85 1010.6
20260830105435 22 0.0 0.0 0.00 0.00 0.00 85 1010.7
20260830104915 22 0.0 0.0 0.00 0.00 0.00 85 1010.7
20260830104415 22 0.0 1.6 0.00 0.00 0.00 85 1010.7
20260830103915 22 0.0 0.0 0.00 0.00 0.00 85 1010.6
20260830103415 22 0.0 0.0 0.00 0.00 0.00 86 1010.6
20260830102915 22 0.0 1.6 0.00 0.00 0.00 86 1010.5
20260830102415 22 0.0 0.0 0.00 0.00 0.00 87 1010.6
20260830101915 21 0.0 0.0 0.00 0.00 0.00 86 1010.6
20260830101415 21 0.0 0.0 0.00 0.00 0.00 86 1010.6
20260830100915 21 0.0 0.0 0.00 0.00 0.00 85 1010.6
20260830100415 22 0.0 0.0 0.00 0.00 0.00 85 1010.7
20260830095915 22 0.0 0.0 0.00 0.00 0.00 85 1010.7
20260830095415 22 0.0 0.0 0.00 0.00 0.00 85 1010.6
20260830094915 22 0.0 0.0 0.00 0.00 0.00 85 1010.5
20260830094435 22 0.0 0.0 0.00 0.00 0.00 85 1010.4
20260830093915 22 0.0 0.0 0.00 0.00 0.00 85 1010.5
20260830093415 22 0.0 0.0 0.00 0.00 0.00 85 1010.5
20260830092915 22 0.0 1.6 0.00 0.00 0.00 84 1010.4
20260830092415 22 0.0 1.6 0.00 0.00 0.00 84 1010.4
20260830091917 22 0.0 1.6 0.00 0.00 0.00 84 1010.4
20260830091417 22 125 1.6 3.2 0.00 0.00 0.00 84 1010.4
20260830090917 22 0.0 1.6 0.00 0.00 0.00 83 1010.4
20260830090415 22 0.0 1.6 0.00 0.00 0.00 83 1010.5
20260830085917 22 0.0 1.6 0.00 0.00 0.00 83 1010.5
20260830085417 22 125 3.2 3.2 0.00 0.00 0.00 82 1010.6
20260830084917 22 0.0 6.4 0.00 0.00 0.00 82 1010.6
20260830084415 22 0.0 3.2 0.00 0.00 0.00 81 1010.5
20260830083917 22 0.0 1.6 0.00 0.00 0.00 80 1010.5
20260830083417 22 0.0 1.6 0.00 0.00 0.00 79 1010.6
20260830082917 22 103 1.6 3.2 0.00 0.00 0.00 78 1010.7
20260830082417 22 0.0 0.0 0.00 0.00 0.00 77 1010.7
20260830081917 22 0.0 0.0 0.00 0.00 0.00 78 1010.8
20260830081417 22 125 1.6 1.6 0.00 0.00 0.00 79 1010.7
20260830080917 22 0.0 0.0 0.00 0.00 0.00 80 1010.8
20260830080417 22 0.0 0.0 0.00 0.00 0.00 82 1010.9
20260830075917 22 0.0 1.6 0.00 0.00 0.00 83 1010.8
20260830075417 22 0.0 0.0 0.00 0.00 0.00 83 1010.8
20260830074917 22 0.0 0.0 0.00 0.00 0.00 82 1010.8
20260830074437 22 0.0 0.0 0.00 0.00 0.00 81 1010.7
20260830073917 22 0.0 0.0 0.00 0.00 0.00 81 1010.7
20260830073417 22 0.0 0.0 0.00 0.00 0.00 79 1010.7
20260830072917 22 0.0 0.0 0.00 0.00 0.00 80 1010.7
20260830072457 22 0.0 0.0 0.00 0.00 0.00 79 1010.7
20260830071917 22 0.0 0.0 0.00 0.00 0.00 79 1010.6
20260830071457 22 0.0 0.0 0.00 0.00 0.00 77 1010.7
20260830070917 22 0.0 0.0 0.00 0.00 0.00 77 1010.6
20260830070417 22 0.0 0.0 0.00 0.00 0.00 77 1010.6
20260830065935 22 0.0 0.0 0.00 0.00 0.00 77 1010.6
20260830065415 22 0.0 0.0 0.00 0.00 0.00 77 1010.4
20260830064916 22 0.0 0.0 0.00 0.00 0.00 77 1010.5
20260830064415 22 0.0 0.0 0.00 0.00 0.00 77 1010.5
20260830063915 22 0.0 0.0 0.00 0.00 0.00 76 1010.5
20260830063435 22 0.0 0.0 0.00 0.00 0.00 76 1010.4
20260830062916 22 0.0 0.0 0.00 0.00 0.00 76 1010.4
20260830062415 22 0.0 0.0 0.00 0.00 0.00 76 1010.4
20260830061915 22 0.0 0.0 0.00 0.00 0.00 75 1010.4
20260830061415 22 0.0 0.0 0.00 0.00 0.00 75 1010.3
20260830060915 22 0.0 0.0 0.00 0.00 0.00 75 1010.3
20260830060415 22 283 1.6 3.2 0.00 0.00 0.00 75 1010.3
20260830055915 22 0.0 0.0 0.00 0.00 0.00 74 1010.4
20260830055416 22 0.0 0.0 0.00 0.00 0.00 74 1010.4
20260830054915 23 0.0 0.0 0.00 0.00 0.00 74 1010.5
20260830054415 23 283 1.6 1.6 0.00 0.00 0.00 74 1010.5
20260830053915 23 305 3.2 3.2 0.00 0.00 0.00 74 1010.4
20260830053415 23 260 1.6 3.2 0.00 0.00 0.00 74 1010.3
20260830052915 23 283 1.6 4.8 0.00 0.00 0.00 74 1010.3
20260830052415 23 283 1.6 3.2 0.00 0.00 0.00 74 1010.4
20260830051915 23 0.0 1.6 0.00 0.00 0.00 74 1010.4
20260830051415 23 0.0 1.6 0.00 0.00 0.00 74 1010.3
20260830050935 23 0.0 0.0 0.00 0.00 0.00 74 1010.3
20260830050415 23 0.0 0.0 0.00 0.00 0.00 74 1010.4
20260830045915 23 0.0 1.6 0.00 0.00 0.00 74 1010.3
20260830045415 23 283 1.6 3.2 0.00 0.00 0.00 74 1010.4
20260830044935 23 260 3.2 4.8 0.00 0.00 0.00 74 1010.4
20260830044415 23 283 4.8 6.4 0.00 0.00 0.00 73 1010.5
20260830043915 23 0.0 1.6 0.00 0.00 0.00 74 1010.4
20260830043417 23 283 1.6 4.8 0.00 0.00 0.00 74 1010.4
20260830042937 23 260 4.8 4.8 0.00 0.00 0.00 74 1010.3
20260830042437 23 260 8.0 11.3 0.00 0.00 0.00 75 1010.2
20260830041915 23 283 6.4 9.7 0.00 0.00 0.00 76 1010.2
20260830041417 23 283 4.8 8.0 0.00 0.00 0.00 77 1010.3
20260830040917 23 283 3.2 4.8 0.00 0.00 0.00 78 1010.2
20260830040417 23 260 4.8 6.4 0.00 0.00 0.00 79 1010.2
20260830035917 23 283 4.8 6.4 0.00 0.00 0.00 79 1010.2
20260830035415 23 283 3.2 4.8 0.00 0.00 0.00 79 1010.1
20260830034917 23 283 1.6 3.2 0.00 0.00 0.00 79 1010.1
20260830034417 23 283 1.6 3.2 0.00 0.00 0.00 79 1010.0
20260830033937 23 260 4.8 6.4 0.00 0.00 0.00 79 1010.0
20260830033417 23 283 1.6 3.2 0.00 0.00 0.00 78 1009.9
20260830032937 23 0.0 1.6 0.00 0.00 0.00 78 1009.9
20260830032417 24 283 4.8 6.4 0.00 0.00 0.00 78 1009.8
20260830031917 24 260 6.4 8.0 0.00 0.00 0.00 77 1009.7
20260830031417 24 283 4.8 8.0 0.00 0.00 0.00 76 1009.7
20260830030917 24 283 6.4 9.7 0.00 0.00 0.00 75 1009.6
20260830030417 24 305 4.8 6.4 0.00 0.00 0.00 74 1009.6
20260830025937 24 305 6.4 9.7 0.00 0.00 0.00 73 1009.5
20260830025417 25 260 6.4 8.0 0.00 0.00 0.00 72 1009.5
20260830024917 25 283 6.4 9.7 0.00 0.00 0.00 71 1009.5
20260830024417 25 260 6.4 8.0 0.00 0.00 0.00 69 1009.4
20260830023917 25 305 9.7 14.5 0.00 0.00 0.00 68 1009.3
20260830023417 25 283 11.3 16.1 0.00 0.00 0.00 67 1009.3
20260830022917 25 283 4.8 9.7 0.00 0.00 0.00 66 1009.4
20260830022417 25 283 6.4 9.7 0.00 0.00 0.00 65 1009.5
20260830021917 25 283 6.4 9.7 0.00 0.00 0.00 65 1009.4
20260830021417 25 260 4.8 9.7 0.00 0.00 0.00 64 1009.4
20260830020935 26 283 6.4 11.3 0.00 0.00 0.00 64 1009.4
20260830020417 26 283 12.9 17.7 0.00 0.00 0.00 63 1009.4
20260830015917 26 260 11.3 14.5 0.00 0.00 0.00 64 1009.3
20260830015417 26 283 9.7 12.9 0.00 0.00 0.00 66 1009.3
20260830014917 26 260 12.9 19.3 0.00 0.00 0.00 66 1009.3
20260830014417 26 305 9.7 14.5 0.00 0.00 0.00 68 1009.3
20260830013917 26 283 9.7 12.9 0.00 0.00 0.00 70 1009.4
20260830013417 26 305 8.0 12.9 0.00 0.00 0.00 72 1009.4
20260830012917 26 283 9.7 12.9 0.00 0.00 0.00 76 1009.4
20260830012417 26 260 14.5 22.5 0.00 0.00 0.00 75 1009.4
20260830011917 26 283 11.3 17.7 0.00 0.00 0.00 74 1009.5
20260830011417 26 260 14.5 20.9 0.00 0.00 0.00 73 1009.4
20260830010957 27 283 12.9 16.1 0.00 0.00 0.00 71 1009.3
20260830010417 27 283 8.0 11.3 0.00 0.00 0.00 69 1009.3
20260830005917 27 305 8.0 14.5 0.00 0.00 0.00 68 1009.2
20260830005417 28 260 9.7 14.5 0.00 0.00 0.00 67 1009.1
20260830004917 28 283 4.8 8.0 0.00 0.00 0.00 67 1009.1
20260830004417 28 283 11.3 17.7 0.00 0.00 0.00 66 1009.1
20260830003916 28 305 9.7 17.7 0.00 0.00 0.00 67 1009.1
20260830003417 28 305 11.3 19.3 0.00 0.00 0.00 67 1009.1
20260830002916 28 305 11.3 14.5 0.00 0.00 0.00 65 1009.2